TGL66PC LFPG-LIRF

Flight info

Callsign TGL66PC
Flight time N/A
Altitude 37000
Route OKASI DCT OKEKO DCT MOU DCT MADIV DCT MOKIP DCT TUFTA DCT KOGAS DCT MEDAM DCT NITAM DCT MOGBO DCT ELB/N0446F380 DCT ELKAP
Aircraft A320/M-SDE3FGHIRWY/LB1

Departure

Time 2026-04-30 14:43
Airport Charles de Gaulle International Airport (LFPG)

Arrival

Time N/A
Airport Rome–Fiumicino Leonardo da Vinci International Airport (LIRF)
Time Latitude Longitude Altitude Speed Heading
2026-04-30 14:18 49.01298 2.53816 355 ft 0 kts 107°
2026-04-30 14:30 49.01313 2.53791 358 ft 0 kts 198°
2026-04-30 14:33 49.01303 2.53765 354 ft 5 kts 261°
2026-04-30 14:33 49.01355 2.53623 364 ft 11 kts 336°
2026-04-30 14:33 49.01436 2.53608 354 ft 13 kts 359°
2026-04-30 14:34 49.01525 2.53611 359 ft 12 kts 355°
2026-04-30 14:34 49.01604 2.53600 354 ft 11 kts 355°
2026-04-30 14:34 49.01679 2.53591 358 ft 10 kts 355°
2026-04-30 14:34 49.01748 2.53582 354 ft 10 kts 355°
2026-04-30 14:35 49.01863 2.53542 360 ft 8 kts 303°
2026-04-30 14:35 49.01863 2.53468 358 ft 7 kts 261°
2026-04-30 14:35 49.01857 2.53403 358 ft 6 kts 263°
2026-04-30 14:36 49.01853 2.53341 355 ft 7 kts 266°
2026-04-30 14:36 49.01850 2.53249 355 ft 11 kts 266°
2026-04-30 14:36 49.01845 2.53114 354 ft 15 kts 268°
2026-04-30 14:36 49.01836 2.52951 354 ft 15 kts 264°
2026-04-30 14:37 49.01829 2.52797 358 ft 14 kts 266°
2026-04-30 14:37 49.01822 2.52653 354 ft 13 kts 266°
2026-04-30 14:37 49.01815 2.52519 363 ft 12 kts 265°
2026-04-30 14:37 49.01815 2.52398 361 ft 11 kts 287°
2026-04-30 14:38 49.01872 2.52343 358 ft 9 kts 321°
2026-04-30 14:38 49.01893 2.52288 361 ft 4 kts 277°
2026-04-30 14:38 49.01890 2.52243 357 ft 4 kts 265°
2026-04-30 14:38 49.01889 2.52198 361 ft 4 kts 271°
2026-04-30 14:39 49.01896 2.52161 354 ft 3 kts 296°
2026-04-30 14:39 49.01909 2.52139 363 ft 2 kts 319°
2026-04-30 14:39 49.01921 2.52128 361 ft 1 kts 331°
2026-04-30 14:40 49.01979 2.52111 354 ft 5 kts 354°
2026-04-30 14:40 49.02012 2.52106 355 ft 0 kts 354°
2026-04-30 14:41 49.02017 2.52105 354 ft 3 kts 354°
2026-04-30 14:41 49.02051 2.52103 354 ft 7 kts
2026-04-30 14:41 49.02108 2.52156 355 ft 11 kts 60°
2026-04-30 14:41 49.02112 2.52200 353 ft 0 kts 85°
2026-04-30 14:42 49.02113 2.52210 353 ft 13 kts 85°
2026-04-30 14:42 49.02141 2.52739 356 ft 83 kts 85°
2026-04-30 14:43 49.02204 2.53903 353 ft 134 kts 85°
2026-04-30 14:43 49.02287 2.55491 622 ft 159 kts 85°
2026-04-30 14:43 49.02404 2.57241 1158 ft 173 kts 84°
2026-04-30 14:43 49.02550 2.59102 1768 ft 181 kts 84°
2026-04-30 14:44 49.02727 2.61085 2349 ft 197 kts 83°
2026-04-30 14:44 49.02924 2.63242 2908 ft 215 kts 86°
2026-04-30 14:44 49.03029 2.65617 3393 ft 235 kts 89°
2026-04-30 14:44 49.03106 2.68160 3866 ft 244 kts 90°
2026-04-30 14:45 49.03188 2.70767 4340 ft 249 kts 90°
2026-04-30 14:45 49.03287 2.73414 4819 ft 252 kts 89°
2026-04-30 14:45 49.03401 2.76113 5294 ft 258 kts 89°
2026-04-30 14:45 49.03526 2.78870 5765 ft 262 kts 90°
2026-04-30 14:46 49.03661 2.81663 6244 ft 266 kts 89°
2026-04-30 14:46 49.03800 2.84498 6719 ft 271 kts 89°
2026-04-30 14:46 49.03943 2.87380 7219 ft 276 kts 89°
2026-04-30 14:46 49.04040 2.89312 7823 ft 276 kts 87°
2026-04-30 14:47 49.04224 2.93239 9055 ft 278 kts 91°
2026-04-30 14:47 49.03894 2.96128 9880 ft 279 kts 114°
2026-04-30 14:47 49.02832 2.98640 10407 ft 293 kts 136°
2026-04-30 14:47 49.01062 3.00332 10796 ft 311 kts 161°
2026-04-30 14:48 48.98892 3.00810 11394 ft 322 kts 177°
2026-04-30 14:48 48.96662 3.00911 12131 ft 326 kts 175°
2026-04-30 14:48 48.94390 3.00991 12967 ft 327 kts 176°
2026-04-30 14:48 48.92110 3.00531 13668 ft 337 kts 195°
2026-04-30 14:49 48.89989 2.98899 14353 ft 345 kts 208°
2026-04-30 14:49 48.87925 2.96992 15004 ft 348 kts 209°
2026-04-30 14:49 48.85848 2.95055 15625 ft 352 kts 207°
2026-04-30 14:49 48.83754 2.93097 16260 ft 355 kts 208°
2026-04-30 14:50 48.79494 2.89136 17529 ft 362 kts 209°
2026-04-30 14:50 48.77328 2.87129 18148 ft 366 kts 207°
2026-04-30 14:51 48.72969 2.83100 19236 ft 373 kts 208°
2026-04-30 14:51 48.70741 2.81047 19745 ft 377 kts 208°
2026-04-30 14:51 48.66214 2.76896 20792 ft 384 kts 207°
2026-04-30 14:52 48.63921 2.74793 21312 ft 387 kts 207°
2026-04-30 14:52 48.59268 2.70537 22335 ft 393 kts 207°
2026-04-30 14:52 48.56895 2.68436 22694 ft 398 kts 202°
2026-04-30 14:53 48.51495 2.67152 23165 ft 398 kts 167°
2026-04-30 14:53 48.48827 2.68223 23588 ft 398 kts 159°
2026-04-30 14:54 48.43512 2.70731 24384 ft 402 kts 159°
2026-04-30 14:54 48.38178 2.73267 25139 ft 407 kts 159°
2026-04-30 14:55 48.32743 2.75832 25870 ft 412 kts 160°
2026-04-30 14:55 48.29998 2.77109 26230 ft 414 kts 160°
2026-04-30 14:55 48.24465 2.79672 26948 ft 418 kts 160°
2026-04-30 14:56 48.18873 2.82269 27650 ft 423 kts 160°
2026-04-30 14:56 48.13228 2.84894 28350 ft 427 kts 160°
2026-04-30 14:57 48.10387 2.86211 28678 ft 429 kts 160°
2026-04-30 14:57 48.04662 2.88871 29291 ft 433 kts 161°
2026-04-30 14:58 47.98880 2.91545 29892 ft 437 kts 161°
2026-04-30 14:58 47.96954 2.92433 30082 ft 438 kts 161°
2026-04-30 14:58 47.91096 2.95129 30610 ft 441 kts 161°
2026-04-30 14:59 47.85236 2.97826 31282 ft 440 kts 161°
2026-04-30 15:00 47.76458 3.01848 32311 ft 438 kts 161°
2026-04-30 15:00 47.70662 3.04484 32937 ft 438 kts 162°
2026-04-30 15:01 47.64826 3.07135 33605 ft 437 kts 162°
2026-04-30 15:01 47.61918 3.08461 33929 ft 437 kts 162°
2026-04-30 15:01 47.56109 3.11109 34521 ft 437 kts 162°
2026-04-30 15:02 47.53227 3.12547 34755 ft 437 kts 156°
2026-04-30 15:02 47.50421 3.14294 34957 ft 438 kts 156°
2026-04-30 15:03 47.41987 3.19541 35674 ft 439 kts 156°
2026-04-30 15:03 47.36394 3.23012 36140 ft 439 kts 156°
2026-04-30 15:04 47.30760 3.26504 36551 ft 440 kts 157°
2026-04-30 15:04 47.22263 3.31744 37074 ft 442 kts 157°
2026-04-30 15:06 47.08062 3.40453 37109 ft 443 kts 157°
2026-04-30 15:07 46.96675 3.47407 37102 ft 444 kts 157°
2026-04-30 15:08 46.85251 3.54361 37101 ft 445 kts 158°
2026-04-30 15:09 46.71990 3.65334 37095 ft 445 kts 128°
2026-04-30 15:09 46.69044 3.73198 37106 ft 445 kts 107°
2026-04-30 15:10 46.67518 3.81941 37101 ft 446 kts 104°
2026-04-30 15:11 46.62974 4.08221 37092 ft 446 kts 104°
2026-04-30 15:13 46.59162 4.30039 37100 ft 446 kts 104°
2026-04-30 15:14 46.53748 4.60528 37108 ft 445 kts 104°
2026-04-30 15:17 46.46684 4.99572 37106 ft 444 kts 104°
2026-04-30 15:19 46.40260 5.34393 37111 ft 448 kts 104°